Delta Virtual Airport Information Service

Seoul Incheon International Airport

ICAO: RKSI Country: South Korea
Latitude: 37.4691 Longitude: 126.451
Latest Arrival : DAC26 (KSFO-RKSI) Latest Departure : DAC865 (RKSI-ZGGG)


WX CaptureLIVE
Data provided by noaa.gov | Fetched at 12:35:02

METAR : RKSI 301700Z 06008KT 9999 SCT030 17/14 Q1012 NOSIG

TAF : RKSI 301100Z 3012/0118 06006KT 6000 SCT030 BKN160 TN16/3020Z TX23/0104Z BECMG 3016/3017 15008KT BKN030 BECMG 0102/0103 21010KT 9999 SCT030 BKN150 BECMG 0115/0116 BKN030 BKN120


Runway Data for RKSI
Data provided by openaviationdata.com

Runway ID Mag Var Hdg Length Elevation Surface ILS Freq ILS Id ILS Slope
15L -8 152° 12308 ft 23 ft Asphalt 111.9 ISLL 3
15R -8 152° 12308 ft 23 ft Asphalt 109.1 ISRR 3
33L -8 332° 12308 ft 23 ft Asphalt 109.3 INLL 3
33R -8 332° 12308 ft 23 ft Asphalt 108.9 INRR 3

Seoul Incheon International Airport, South Korea
Use only for reference purposes



Not for navigational purposes.